Content
SEND FEEDBACK

Daily
Averages
Monthly
Summary
Mexico

PLAYA DEL CARMEN, QUINTANA ROO


Home > North America > Mexico > Quintana Roo
Elevation: 30 feet     Latitude: 20 38N     Longitude: 087 04W

WEATHER
 
SELECT A DAY
Number of Records: 200,334;   Date Range: 2/21/06 - 9/28/14
 
SHARE

PRINT THIS DATA

[ ← Previous Day ]
WEATHER ALMANAC - JULY 13, 2014
[ Next Day → ]
[ °C ]   °F
Weather ElementAverageHighLow
Temperature82.5 °F93.2 °F (12:15 pm)75.2 °F (10:55 pm)
Dewpoint43.7 °F80.6 °F (5:55 pm) (7:00 pm)
Humidity68.2 %100 % (5:55 pm)46 % (12:35 pm)
Barometer30.11 in30.15 in (2:35 am)30.07 in (11:35 am)
Wind Speed2.9 mph8.1 mph (2:15 pm)
Wind Gust20.7 mph (6:15 pm)
Weather ElementAverage
Visibility9.8 mi
Wind DirectionENE (61.1 °)

Weather ElementTotal
Precipitation0.04 in
Cooling Degree Days19.2 (Base 65)
Growing Degree Days34.2 (Base 50)
Averaged from 70 records on July 13, 2014
WEATHER CONDITIONS BREAKOUT
WIND DIRECTION BREAKOUT
WEATHER BY HOUR - JULY 13, 2014
[ °C ]   °F
Local TimeTemperatureDewpointHumidityBarometerVisibilityWind DirectionWind SpeedGust SpeedPrecipitationEventsConditions
12:15 AM75.2 °F0.0 °F30.15 in10.0 miCalmMostly Cloudy
12:35 AM75.2 °F0.0 °F30.14 in10.0 miCalm0.01 inScattered Clouds
12:55 AM75.2 °F0.0 °F30.14 in10.0 miEast (100°)3.5 mph0.01 inClear
1:15 AM75.2 °F0.0 °F30.14 in10.0 miCalmClear
1:35 AM75.2 °F0.0 °F30.13 in10.0 miCalmClear
1:55 AM75.2 °F0.0 °F30.13 in10.0 miEast (80°)3.5 mphClear
2:15 AM75.2 °F0.0 °F30.13 in10.0 miCalmClear
2:35 AM75.2 °F0.0 °F30.12 in10.0 miCalmClear
2:55 AM75.2 °F0.0 °F30.12 in10.0 miEast (90°)3.5 mphClear
3:15 AM75.2 °F0.0 °F30.12 in10.0 miEast (100°)4.6 mphClear
3:35 AM75.2 °F0.0 °F30.11 in10.0 miCalmClear
3:55 AM75.2 °F0.0 °F30.11 in10.0 miCalmClear
4:15 AM75.2 °F0.0 °F30.11 in10.0 miESE (110°)3.5 mphClear
4:35 AM75.2 °F0.0 °F30.10 in10.0 miCalmClear
4:55 AM75.2 °F0.0 °F30.09 in10.0 miCalmClear
5:15 AM75.2 °F0.0 °F30.09 in10.0 miCalmClear
5:35 AM75.2 °F0.0 °F30.09 in10.0 miCalmClear
5:55 AM75.2 °F0.0 °F30.09 in10.0 miCalmClear
6:15 AM75.2 °F0.0 °F30.10 in10.0 miCalmClear
6:35 AM75.2 °F0.0 °F30.10 in7.0 miNorthClear
6:55 AM75.2 °F0.0 °F30.11 in4.0 miNorthHaze
7:15 AM75.2 °F0.0 °F30.11 in7.0 miCalmClear
7:35 AM77.0 °F0.0 °F30.11 in7.0 miCalm0.01 inClear
7:55 AM77.0 °F0.0 °F30.12 in10.0 miCalm0.01 inClear
8:15 AM77.0 °F0.0 °F30.12 in10.0 miCalmClear
8:35 AM78.8 °F0.0 °F30.12 in10.0 miCalmClear
8:55 AM80.6 °F0.0 °F30.12 in10.0 miCalmClear
9:15 AM82.4 °F0.0 °F30.13 in10.0 miESE (120°)5.8 mphClear
9:35 AM84.2 °F0.0 °F30.13 in10.0 miSE (140°)3.5 mphClear
9:55 AM84.2 °F78.8 °F84 %30.14 in10.0 miSSE (150°)5.8 mphScattered Clouds
10:15 AM86.0 °F78.8 °F79 %30.14 in10.0 miSE (140°)6.9 mphScattered Clouds
10:35 AM86.0 °F77.0 °F74 %30.15 in10.0 miSSE (150°)4.6 mphScattered Clouds
10:55 AM86.0 °F77.0 °F74 %30.15 in10.0 miSSE (160°)5.8 mphScattered Clouds
11:15 AM87.8 °F75.2 °F66 %30.15 in10.0 miESE (120°)4.6 mphScattered Clouds
11:35 AM87.8 °F75.2 °F66 %30.15 in10.0 miSSW (200°)4.6 mphMostly Cloudy
11:55 AM87.8 °F75.2 °F66 %30.15 in10.0 miSE (130°)5.8 mphMostly Cloudy
12:15 PM87.8 °F73.4 °F62 %30.15 in10.0 miCalmMostly Cloudy
12:35 PM87.8 °F73.4 °F62 %30.15 in10.0 miCalmScattered Clouds
12:55 PM89.6 °F71.6 °F55 %30.14 in10.0 miCalmClear
1:15 PM89.6 °F71.6 °F55 %30.14 in10.0 miCalmClear
1:35 PM89.6 °F73.4 °F59 %30.13 in10.0 miCalmScattered Clouds
1:55 PM89.6 °F71.6 °F55 %30.13 in10.0 miCalmMostly Cloudy
2:15 PM91.4 °F71.6 °F52 %30.12 in10.0 miNNE (30°)3.5 mphMostly Cloudy
2:35 PM93.2 °F71.6 °F49 %30.12 in10.0 miESE (110°)4.6 mphScattered Clouds
2:55 PM93.2 °F73.4 °F52 %30.11 in10.0 miEast (90°)8.1 mphMostly Cloudy
3:15 PM91.4 °F73.4 °F55 %30.10 in10.0 miEast (100°)5.8 mphMostly Cloudy
3:35 PM91.4 °F73.4 °F55 %30.10 in10.0 miEast (100°)6.9 mphScattered Clouds
3:55 PM93.2 °F71.6 °F49 %30.09 in10.0 miEast (90°)6.9 mphScattered Clouds
4:15 PM93.2 °F71.6 °F49 %30.08 in10.0 miESE (110°)5.8 mphClear
4:35 PM93.2 °F69.8 °F46 %30.08 in10.0 miEast (80°)5.8 mphScattered Clouds
4:55 PM89.6 °F73.4 °F59 %30.08 in10.0 miEast (80°)4.6 mphScattered Clouds
5:15 PM89.6 °F73.4 °F59 %30.07 in10.0 miNE (50°)4.6 mphScattered Clouds
5:35 PM87.8 °F73.4 °F62 %30.08 in10.0 miNNE (30°)3.5 mphScattered Clouds
5:55 PM87.8 °F73.4 °F62 %30.07 in10.0 miNE (40°)3.5 mphScattered Clouds
6:15 PM87.8 °F71.6 °F58 %30.08 in10.0 miNorth (10°)3.5 mphClear
6:35 PM87.8 °F73.4 °F62 %30.07 in10.0 miNE (50°)5.8 mphClear
7:15 PM87.8 °F73.4 °F62 %30.08 in10.0 miENE (60°)3.5 mphClear
7:35 PM86.0 °F71.6 °F62 %30.09 in10.0 miESE (110°)8.1 mph20.7 mphScattered Clouds
7:55 PM84.2 °F71.6 °F66 %30.09 in10.0 miEast (100°)5.8 mphScattered Clouds
8:15 PM84.2 °F73.4 °F70 %30.09 in10.0 miEast (100°)5.8 mphScattered Clouds
8:35 PM82.4 °F75.2 °F79 %30.10 in10.0 miESE (120°)6.9 mphClear
9:15 PM82.4 °F75.2 °F79 %30.09 in10.0 miEast (80°)3.5 mphClear
9:35 PM80.6 °F77.0 °F89 %30.09 in10.0 miEast (90°)4.6 mphClear
9:55 PM80.6 °F77.0 °F89 %30.10 in10.0 miENE (60°)3.5 mphClear
10:15 PM80.6 °F78.8 °F94 %30.10 in10.0 miSE (140°)3.5 mphClear
10:35 PM80.6 °F78.8 °F94 %30.11 in10.0 miSE (130°)4.6 mphClear
10:55 PM80.6 °F80.6 °F100 %30.11 in10.0 miSouth (190°)4.6 mphClear
11:15 PM80.6 °F78.8 °F94 %30.12 in10.0 miSouth (190°)3.5 mphScattered Clouds
11:35 PM80.6 °F78.8 °F94 %30.12 in10.0 miCalmScattered Clouds
11:55 PM78.8 °F78.8 °F100 %30.12 in10.0 miSSE (150°)3.5 mphScattered Clouds
Hourly data recorded from KPCM, located miles away from Playa del Carmen, Quintana Roo







STORIES FROM OUR PARTNERS